This is the latest recevied weather packets stored in our database for station/object EA3GKP-10. If no packets are shown the sender has not sent any weather packets the latest 10 day(s).
| Time | Temp. | Humidity | Pressure | Rain* | Wind** | Luminosity | Snow |
|---|---|---|---|---|---|---|---|
| 1777892572 | 20.56° C | - | - | 0 mm | 1.79 m/s, 37° | - | - |
| 1777892269 | 21.11° C | - | - | 0 mm | 0 m/s | - | - |
| 1777891964 | 20.56° C | - | - | 0 mm | 0 m/s | - | - |
| 1777891660 | 21.67° C | - | - | 0 mm | 1.79 m/s, 359° | - | - |
| 1777891354 | 21.11° C | - | - | 0 mm | 0.45 m/s, 359° | - | - |
| 1777891047 | 20.56° C | - | - | 0 mm | 0 m/s | - | - |
| 1777890741 | 21.67° C | - | - | 0 mm | 0 m/s | - | - |
| 1777890438 | 21.11° C | - | - | 0 mm | 0.45 m/s, 359° | - | - |
| 1777890132 | 20.56° C | - | - | 0 mm | 1.34 m/s, 77° | - | - |
| 1777889825 | 20° C | - | - | 0 mm | 3.13 m/s, 90° | - | - |
| 1777889522 | 21.11° C | - | - | 0 mm | 0 m/s | - | - |
| 1777889218 | 21.11° C | - | - | 0 mm | 1.79 m/s, 63° | - | - |
| 1777888915 | 21.11° C | - | - | 0 mm | 2.68 m/s, 103° | - | - |
| 1777888610 | 21.11° C | - | - | 0 mm | 1.79 m/s, 77° | - | - |
| 1777888307 | 20.56° C | - | - | 0 mm | 1.34 m/s, 129° | - | - |
| 1777888003 | 20.56° C | - | - | 0 mm | 1.79 m/s, 128° | - | - |
| 1777887701 | 20.56° C | - | - | 0 mm | 2.68 m/s, 166° | - | - |
| 1777887397 | 20.56° C | - | - | 0 mm | 2.24 m/s, 76° | - | - |
| 1777887092 | 21.11° C | - | - | 0 mm | 1.79 m/s, 62° | - | - |
| 1777886789 | 21.11° C | - | - | 0 mm | 0 m/s | - | - |
| 1777886482 | 20° C | - | - | 0 mm | 0 m/s | - | - |
| 1777886176 | 20.56° C | - | - | 0 mm | 0 m/s | - | - |
| 1777885873 | 20° C | - | - | 0 mm | 1.79 m/s, 359° | - | - |
| 1777885569 | 20.56° C | - | - | 0 mm | 0.45 m/s, 359° | - | - |
| 1777885266 | 20° C | - | - | 0 mm | 2.68 m/s, 86° | - | - |
* Rain latest hour (hover to see other rain measurements)
** Current wind speed in m/s (hover to see current wind gust speed)